Satellite-Ground Cal/Val Region Overpasses Predictions

Prediction of Satellite NPP Overpassing Cal/Val Region: PacNW

Region Location: (Latitude: 10.00, Longitude: 139.50) to (Latitude: 22.70, Longitude: 165.60).

Table of predicted overpasses for the next 14.0 days since TLE Epoch: 10/16/2021
Interval Starting Time Starting Location Ending Time Ending Location
1 10/16/2021 14:59:28 ( 22.69, 160.17) 10/16/2021 15:03:04 ( 10.02, 157.15)
2 10/17/2021 02:11:05 ( 18.88, 165.60) 10/17/2021 02:12:10 ( 22.69, 164.66)
3 10/17/2021 03:50:04 ( 10.01, 142.30) 10/17/2021 03:53:25 ( 21.81, 139.50)
4 10/17/2021 14:40:28 ( 22.64, 164.91) 10/17/2021 14:44:03 ( 10.02, 161.90)
5 10/17/2021 16:21:58 ( 22.64, 139.53) 10/17/2021 16:22:00 ( 22.53, 139.50)
6 10/18/2021 03:31:03 ( 10.00, 147.06) 10/18/2021 03:34:39 ( 22.68, 144.04)
7 10/18/2021 16:02:58 ( 22.65, 144.29) 10/18/2021 16:06:33 ( 10.03, 141.28)
8 10/19/2021 03:12:04 ( 10.06, 151.80) 10/19/2021 03:15:39 ( 22.68, 148.79)
9 10/19/2021 15:43:57 ( 22.66, 149.04) 10/19/2021 15:47:32 ( 10.04, 146.04)
10 10/20/2021 02:53:03 ( 10.05, 156.55) 10/20/2021 02:56:38 ( 22.67, 153.55)
11 10/20/2021 15:24:57 ( 22.66, 153.80) 10/20/2021 15:28:32 ( 10.05, 150.79)
12 10/21/2021 02:34:03 ( 10.04, 161.31) 10/21/2021 02:37:38 ( 22.67, 158.30)
13 10/21/2021 15:05:56 ( 22.67, 158.55) 10/21/2021 15:09:31 ( 10.05, 155.55)
14 10/22/2021 02:15:37 ( 12.10, 165.59) 10/22/2021 02:18:37 ( 22.66, 163.06)
15 10/22/2021 03:56:32 ( 10.04, 140.69) 10/22/2021 03:57:59 ( 15.15, 139.50)
16 10/22/2021 14:46:56 ( 22.68, 163.31) 10/22/2021 14:50:31 ( 10.06, 160.30)
17 10/23/2021 03:37:32 ( 10.03, 145.44) 10/23/2021 03:41:07 ( 22.66, 142.44)
18 10/23/2021 14:30:50 ( 12.41, 165.60) 10/23/2021 14:31:31 ( 10.00, 165.04)
19 10/23/2021 16:09:25 ( 22.68, 142.69) 10/23/2021 16:13:01 ( 10.00, 139.67)
20 10/24/2021 03:18:31 ( 10.03, 150.20) 10/24/2021 03:22:06 ( 22.65, 147.19)
21 10/24/2021 15:50:25 ( 22.68, 147.44) 10/24/2021 15:54:01 ( 10.01, 144.42)
22 10/25/2021 02:59:31 ( 10.03, 154.95) 10/25/2021 03:03:06 ( 22.65, 151.94)
23 10/25/2021 15:31:25 ( 22.69, 152.20) 10/25/2021 15:35:01 ( 10.01, 149.18)
24 10/26/2021 02:40:30 ( 10.02, 159.70) 10/26/2021 02:44:05 ( 22.65, 156.70)
25 10/26/2021 15:12:24 ( 22.69, 156.95) 10/26/2021 15:16:00 ( 10.01, 153.93)
26 10/27/2021 02:21:30 ( 10.02, 164.46) 10/27/2021 02:25:05 ( 22.64, 161.45)
27 10/27/2021 14:53:24 ( 22.69, 161.70) 10/27/2021 14:57:00 ( 10.02, 158.68)
28 10/28/2021 03:43:59 ( 10.02, 143.84) 10/28/2021 03:47:34 ( 22.64, 140.83)
29 10/28/2021 14:35:23 ( 19.18, 165.59) 10/28/2021 14:37:59 ( 10.02, 163.44)
30 10/28/2021 16:15:53 ( 22.70, 141.08) 10/28/2021 16:17:43 ( 16.24, 139.51)
31 10/29/2021 03:24:59 ( 10.02, 148.59) 10/29/2021 03:28:34 ( 22.64, 145.59)
32 10/29/2021 15:56:53 ( 22.70, 145.84) 10/29/2021 16:00:29 ( 10.02, 142.82)
